Location: Bodorgan
(53.1833°N, 4.4167°W)
Time: 18:43:11
(UTC+00:00)

Daily predictions for brighter satellites

Satellite Brightness Start Highest point End
(mag) Time Altitude Azimuth Time Altitude Azimuth Time Altitude Azimuth
Meteor 1-24 Rocket 4.0 17:41:08 10° NNW 17:46:48 81° W 17:52:39 10° S
Cosmos 2227 Rocket 2.5 17:41:47 10° NNW 17:47:29 78° WSW 17:53:09 10° SSE
Cosmos 1943 Rocket 4.4 17:44:38 10° WNW 17:48:20 17° NNW 17:52:05 10° NNE
Cosmos 494 Rocket 4.0 17:45:22 10° NNW 17:50:36 63° ENE 17:55:45 10° SE
Cosmos 2341 Rocket 4.1 17:44:40 10° S 17:51:04 85° E 17:57:31 10° NNE
Landsat 5 4.5 17:48:12 10° NE 17:51:56 28° E 17:55:45 10° SSE
Gbstr 26 Del rocket 4.5 17:45:45 10° W 17:52:31 80° S 18:00:26 10° ESE
CZ-2C R/B 3.4 17:49:05 10° NNE 17:54:07 32° E 17:59:04 10° SSE
Timation 2 Rocket 4.3 17:47:16 10° NW 17:54:14 89° SW 18:01:03 10° SSE
SKYMED 2 4.3 17:51:01 10° NNE 17:54:56 32° E 17:58:49 10° SSE
Cosmos 2344 4.4 17:47:09 10° WNW 17:54:57 50° NNE 18:05:08 10° E
Cosmos 1844 Rocket 4.3 17:54:29 10° NNW 17:58:18 18° NNE 18:02:06 10° ENE
Meteor 2-10 4.1 17:53:28 10° SSW 17:58:45 90° W 18:03:54 10° NNE
Cosmos 2278 Rocket 4.3 17:56:45 10° NNW 17:59:17 13° N 18:01:47 10° NNE
Cosmos 1726 2.0 17:56:12 10° S 17:59:49 89° E 18:03:29 10° NNE
Okean 2 Rocket 3.2 17:56:47 10° SSW 18:01:14 83° W 18:05:45 10° N
Cosmos 1470 2.7 17:57:53 10° S 18:01:52 75° E 18:05:51 10° NNE
USA 215 3.4 17:55:43 10° ENE 18:02:16 82° NNW 18:08:51 10° WSW
Cosmos 2084 Rocket 3.7 17:59:31 10° SSW 18:03:12 43° SE 18:06:56 10° ENE
Okean O Rocket 1.6 17:59:58 10° SSE 18:04:16 64° ENE 18:08:36 10° N
Cosmos 1703 4.0 18:02:25 10° N 18:06:01 33° ENE 18:09:35 10° SE
SMAP 4.4 18:04:00 10° S 18:08:28 45° W 18:12:58 10° NNW
Cosmos 1758 3.4 18:04:53 10° S 18:08:46 52° E 18:12:39 10° NNE
CZ-4 R/B 2.0 18:06:55 10° SE 18:10:32 34° ENE 18:14:13 10° N
YAOGAN 1 3.1 18:07:22 10° SE 18:11:20 36° ENE 18:15:19 10° N
SL-19 R/B 4.4 18:05:59 10° NNE 18:11:55 64° ESE 18:17:29 10° S
Cosmos 2082 3.7 18:07:01 10° NNW 18:12:42 88° ENE 18:18:20 10° SSE
Okean-O 3.7 18:09:28 10° ESE 18:13:08 26° ENE 18:16:48 10° N
NOSS 3-2 (C) 4.2 18:08:08 10° WSW 18:13:57 51° NNW 18:20:49 10° NE
Cosmos 1455 Rocket 4.1 18:11:58 10° SE 18:15:30 24° E 18:19:05 10° NNE
H-2A R/B 3.3 18:15:13 10° NE 18:18:02 18° E 18:20:51 10° SE
Cosmos 1727 Rocket 4.0 18:12:10 10° N 18:18:27 85° E 18:24:40 10° S
Okean 1-7 Rocket 4.5 18:15:30 10° N 18:19:19 28° ENE 18:23:08 10° SE
Spot 2 4.0 18:15:30 10° SE 18:19:30 56° ENE 18:23:41 10° N
Cosmos 1953 3.1 18:15:55 10° SSE 18:19:30 31° E 18:23:07 10° NNE
Meteor 1-21 Rocket 4.3 18:15:39 10° N 18:21:26 64° ENE 18:27:16 10° SSE
Cosmos 372 Rocket 4.2 18:16:56 10° SSW 18:22:02 73° WNW 18:27:10 10° NNE
Cosmos 2150 Rocket 4.3 18:17:22 10° S 18:22:34 47° ESE 18:27:44 10° NE
Cosmos 2366 rocket 4.2 18:24:58 10° SSW 18:31:09 77° WNW 18:37:26 10° N
H-2A R/B 2.7 18:28:12 10° S 18:33:32 65° WSW 18:38:58 10° NNW
Lacrosse 4 Rocket 2.9 18:30:40 10° NNW 18:34:03 23° NNE 18:36:04 17° ENE
ATLAS 3B R/B 2.7 18:28:42 10° SSW 18:35:11 65° SE 18:42:01 10° NE
Cosmos 405 Rocket 2.9 18:31:53 10° N 18:35:43 53° ENE 18:39:36 10° SSE
Cosmos 1300 4.3 18:38:01 17° ENE 18:38:01 17° ENE 18:39:37 10° NE
OBJECT-B 2.6 18:39:30 16° NE 18:39:30 16° NE 18:41:07 10° NNE
Okean 1 Rocket 3.1 18:36:26 10° SSW 18:40:46 80° WNW 18:45:09 10° N
CZ-4B R/B 4.1 18:37:09 10° S 18:42:41 56° WSW 18:48:18 10° NNW
COSMO-SKYMED 1 2.5 18:38:51 10° NNE 18:43:14 86° ESE 18:47:35 10° SSW
OPS 6432 4.0 18:40:30 10° NW 18:43:25 86° NE 18:45:27 20° SE
NOSS 3 (A) 3.5 18:42:01 10° SW 18:43:40 63° NW 18:44:02 46° NNE
ATLAS 5 CENTAUR R/B 2.7 18:42:38 10° SSE 18:45:36 20° ESE 18:45:39 20° ESE
Cosmos 2227 4.3 18:44:20 10° NNW 18:50:06 64° NE 18:55:04 14° SE
CZ-4C R/B 2.8 18:48:09 10° NNE 18:51:41 84° ESE 18:55:04 10° SSW
Cosmos 2369 3.7 18:48:01 10° SSW 18:53:37 64° ESE 18:59:15 10° NE
Feng Yun 1-1 Rocket 4.4 18:48:56 10° SSE 18:54:27 79° WSW 19:00:11 10° NNW
HJ-1C 3.1 18:51:42 10° SSE 18:54:55 73° ENE 18:58:11 10° N
Cosmos 1892 Rocket 3.7 18:52:22 10° NNW 18:56:52 79° W 19:01:19 10° S
IRS-1C Rocket 4.0 18:53:25 10° SSE 18:58:39 73° ENE 19:03:56 10° NNW
CENTAUR R/B 3.8 18:52:49 10° W 18:59:10 41° NNW 19:06:09 12° NE
H-2A R/B 2.9 18:55:02 10° S 18:59:25 68° WSW 19:03:40 10° NNW
Cosmos 389 Rocket 2.6 18:57:25 10° SSW 19:00:47 70° WNW 19:04:12 10° N
SL-08 RB Rocket 3.9 18:57:51 10° S 19:02:22 73° WSW 19:06:59 10° NNW
Cosmos 1174 3.3 18:59:53 10° SSW 19:02:58 47° SE 19:03:08 46° ESE
USA 186 3.2 19:04:38 23° NE 19:04:38 23° NE 19:06:20 10° N
Cosmos 2298 Rocket 4.1 18:59:37 10° SSW 19:04:56 84° WNW 19:10:17 10° NNE
Cosmos 489 Rocket 4.4 19:00:04 10° NNW 19:06:20 89° SW 19:12:32 10° SSE
Cosmos 2360 4.2 19:01:50 10° SSW 19:07:33 87° WNW 19:13:19 10° NNE
Cosmos 2263 Rocket 2.2 19:01:57 10° NNW 19:07:34 86° WSW 19:12:46 12° SSE
Cosmos 1980 Rocket 2.2 19:02:11 10° SSW 19:07:46 64° ESE 19:13:24 10° NE
X-37B 2.8 19:06:32 10° SSW 19:08:08 15° S 19:08:08 15° S
Cosmos 1269 Rocket 4.0 19:04:13 10° NNW 19:09:33 89° ENE 19:14:31 12° SSE
Meteor 2-10 Rocket 4.4 19:09:28 29° E 19:10:03 29° E 19:14:43 10° NNE
CSL-04 Debris 4.1 19:09:00 10° SSE 19:14:22 73° ENE 19:19:47 10° NNW
Cosmos 1758 Rocket 4.3 19:11:59 10° N 19:15:33 31° ENE 19:15:33 31° ENE
IRAS Rocket 4.2 19:10:53 10° NNE 19:16:32 85° ESE 19:22:05 10° SSW
ARGOS 4.3 19:13:43 10° S 19:18:52 45° W 19:24:04 10° NNW
Cosmos 1821 Rocket 4.3 19:12:40 10° SSW 19:19:04 74° WNW 19:25:28 10° N
SJ-6B 3.3 19:21:19 40° NE 19:21:19 40° NE 19:24:37 10° N
Cosmos 1908 4.0 19:18:49 10° SSW 19:22:38 54° WNW 19:26:28 10° N
Cosmos 1892 3.8 19:19:16 10° N 19:21:40 28° NE 19:21:40 28° NE
Cosmos 724 4.4 19:16:52 10° NW 19:22:52 74° SW 19:26:54 21° SSE
Cosmos 614 Rocket 4.3 19:18:17 10° NNW 19:23:08 42° NE 19:24:03 38° E
Cosmos 2251 Rocket 4.0 19:18:24 10° NNW 19:23:26 42° NE 19:24:31 37° E
Cosmos 1125 Rocket 3.7 19:19:35 10° SSW 19:24:51 71° WNW 19:30:07 10° NNE
Cosmos 1626 Rocket 3.4 19:21:52 10° N 19:26:13 76° ENE 19:28:12 32° SSE
Cosmos 1697 Rocket 3.2 19:20:53 10° SW 19:26:30 62° NW 19:32:08 10° NNE
Iridium 4 Rocket 3.5 19:25:47 10° N 19:30:03 65° W 19:34:37 10° S
Cosmos 1408 4.1 19:27:15 10° N 19:29:01 23° NNE 19:29:01 23° NNE
Cosmos 1943 Rocket 4.5 19:32:03 10° NNW 19:34:35 13° N 19:37:08 10° NNE
CZ-2C R/B 3.5 19:29:11 10° N 19:34:39 53° WNW 19:40:04 10° SW
CSL-04 Rocket 3.7 19:30:11 13° SSE 19:35:09 88° WSW 19:40:46 10° NNW
MetOp-A 4.2 19:31:32 10° S 19:36:54 77° WSW 19:42:18 10° NNW
Cosmos 2278 3.6 19:31:41 10° SSW 19:37:20 78° ESE 19:43:04 10° NNE
Orbus 7S? 4.2 19:30:27 10° WNW 19:40:31 86° SSW 19:41:55 49° ESE
Ariane Rocket 3.6 19:41:05 39° ENE 19:41:05 39° ENE 19:45:37 10° N
Okean O Rocket 4.4 19:38:00 10° SW 19:41:03 18° W 19:44:07 10° NW
Cosmos 2084 Rocket 4.3 19:39:00 10° W 19:42:42 40° NNW 19:44:01 30° NNE
Meteor 1-11 4.4 19:37:52 10° NNW 19:43:27 71° W 19:49:02 10° S
Cosmos 1844 Rocket 2.9 19:38:07 10° NNW 19:43:34 51° NE 19:44:20 47° ENE
Cosmos 1934 Rocket 3.9 19:38:25 10° SSW 19:44:34 83° W 19:50:41 10° N
USA 215 3.5 19:42:02 33° ENE 19:45:07 65° N 19:51:35 10° W
CZ-4 R/B 3.3 19:42:02 10° SSW 19:45:32 30° W 19:49:09 10° NNW
Cosmos 2278 Rocket 3.8 19:41:39 10° NNW 19:45:45 20° NNE 19:46:37 19° NE
Helios 1A Rocket 4.2 19:47:28 29° NNE 19:47:28 29° NNE 19:49:48 10° N
YAOGAN 1 4.3 19:43:36 10° SSW 19:47:28 32° W 19:51:23 10° NNW
DMSP B5D2-2 4.1 19:42:32 10° NNE 19:47:50 79° WNW 19:53:04 10° SSW
Okean-O 3.4 19:45:17 11° S 19:49:23 50° W 19:53:43 10° NNW
Cosmos 1455 Rocket 4.1 19:48:50 10° SSW 19:53:05 46° WNW 19:57:24 10° N
H-2A R/B 2.4 19:50:20 10° N 19:54:24 61° WNW 19:58:27 10° SSW
SL-16 R/B 3.9 19:49:22 10° S 19:50:51 18° S 19:50:51 18° S
Cosmos 1953 4.2 19:52:15 10° SW 19:55:51 31° WNW 19:59:31 10° N
Cosmos 407 Rocket 4.2 19:51:15 10° NNW 19:55:49 39° NE 19:55:49 39° NE
Resurs 01 Rocket 3.1 20:03:54 27° NNE 20:03:54 27° NNE 20:06:13 10° N
IRS-1A Rocket 4.3 20:05:06 63° ESE 20:05:45 68° ENE 20:11:35 10° NNW
Cosmos 1544 Rocket 4.2 20:01:53 10° SSW 20:06:16 56° WNW 20:10:42 10° N
Cosmos 1932 4.4 20:01:10 10° NW 20:07:23 68° NE 20:08:11 62° E
Terra 4.2 20:11:30 11° NNE 20:11:30 11° NNE 20:11:56 10° NNE
Cosmos 1844 3.7 20:04:10 10° NNW 20:09:58 64° NE 20:10:05 64° ENE
Cosmos 2344 4.2 20:01:39 10° NW 20:10:24 84° SW 20:15:55 36° SE
OBJECT-B 3.1 20:12:22 23° NW 20:12:22 23° NW 20:13:49 10° NNW
Cosmos 1300 3.8 20:12:43 42° NW 20:12:43 42° NW 20:15:53 10° N
Lacrosse 4 Rocket 2.0 20:08:59 10° NW 20:12:21 55° NW 20:12:21 55° NW
SeaSat 1 3.6 20:14:12 32° NNE 20:14:12 32° NNE 20:17:47 10° NNW
Cosmos 1140 Rocket 4.1 20:14:30 10° NNW 20:18:27 44° NNE 20:18:27 44° NNE
Cosmos 2346 Rocket 4.5 20:17:34 10° N 20:23:20 63° NE 20:23:20 63° NE
ATLAS 3B R/B 3.4 20:19:44 10° WSW 20:26:13 50° NNW 20:30:33 22° NE
ATLAS 5 CENTAUR R/B 3.2 20:25:33 10° SW 20:27:13 25° WSW 20:27:13 25° WSW
CENTAUR R/B 3.8 20:44:41 10° NW 20:51:37 42° NNE 20:53:18 38° NE
Meteor 2-10 Rocket 4.3 20:50:24 43° WSW 20:51:51 54° WNW 20:57:13 10° N
Cosmos 1980 Rocket 3.7 20:47:01 10° WSW 20:52:10 34° NW 20:57:22 10° NNE
Cosmos 2369 Rocket 4.4 21:10:39 10° NNW 21:13:41 15° NNE 21:13:41 15° NNE
Cosmos 1943 Rocket 4.2 21:16:16 10° NNW 21:19:13 20° N 21:19:13 20° N
Cosmos 1844 Rocket 4.1 21:22:15 10° NW 21:26:01 32° W 21:26:01 32° W
USA 215 3.6 21:29:22 59° WNW 21:29:22 59° WNW 21:34:33 10° WNW
Cosmos 2278 Rocket 3.7 21:25:29 10° NNW 21:28:27 30° NNW 21:28:27 30° NNW
Resurs 01 Rocket 4.4 21:41:29 16° NW 21:41:29 16° NW 21:42:34 10° NNW
ATLAS 5 CENTAUR R/B 4.2 21:45:46 10° WNW 21:56:14 43° NNW 21:56:14 43° NNW
ATLAS 3B R/B 4.0 22:12:12 10° WNW 22:17:48 34° N 22:17:48 34° N
CENTAUR R/B 4.0 22:35:41 10° NW 22:40:27 43° NW 22:40:27 43° NW
